When you browse on this site, cookies collect data to enhance your experience and personalize the content and advertising you see.
Visit our Privacy Policy to learn more. By continuing to use the site, you agree to this use of cookies and data.
  • In United Kingdom
  • List of Countries
  • For 7 days
  • Water Temperature
  • Weather Map
  • Weather Widgets
  • user-avatar
    Login

    Hourly Weather San Antonio

    Today, 6 December, Friday

    Time Temperature Precipitation Wind Pressure Humidity
    00:00 +18°C° 0 mm 2 mps 744 mmHg 85%
    01:00 +18°C° 0 mm 2 mps 744 mmHg 85%
    02:00 +18°C° 0 mm 2 mps 744 mmHg 85%
    03:00 +17°C° 0 mm 2 mps 745 mmHg 78%
    04:00 +17°C° 0 mm 3 mps 745 mmHg 71%
    05:00 +17°C° 0 mm 4 mps 746 mmHg 64%
    06:00 +16°C° 0 mm 5 mps 746 mmHg 59%
    07:00 +16°C° 0 mm 6 mps 747 mmHg 54%
    08:00 +16°C° 0 mm 7 mps 748 mmHg 49%
    09:00 +17°C° 0 mm 7 mps 748 mmHg 46%
    10:00 +20°C° 0 mm 6 mps 748 mmHg 44%
    11:00 +21°C° 0 mm 6 mps 749 mmHg 41%
    12:00 +21°C° 0 mm 6 mps 748 mmHg 41%
    13:00 +22°C° 0 mm 5 mps 748 mmHg 41%
    14:00 +22°C° 0 mm 5 mps 747 mmHg 41%
    15:00 +20°C° 0 mm 4 mps 748 mmHg 45%
    16:00 +19°C° 0 mm 4 mps 748 mmHg 50%
    17:00 +17°C° 0 mm 3 mps 748 mmHg 54%
    18:00 +16°C° 0 mm 3 mps 749 mmHg 56%
    19:00 +14°C° 0 mm 4 mps 749 mmHg 59%
    20:00 +13°C° 0 mm 4 mps 749 mmHg 62%
    21:00 +13°C° 0 mm 4 mps 750 mmHg 64%
    22:00 +12°C° 0 mm 3 mps 750 mmHg 67%
    23:00 +11°C° 0 mm 3 mps 750 mmHg 69%

    Tomorrow, 7 December, Saturday

    Time Temperature Precipitation Wind Pressure Humidity
    00:00 +11°C° 0 mm 3 mps 750 mmHg 71%
    01:00 +10°C° 0 mm 3 mps 749 mmHg 72%
    02:00 +10°C° 0 mm 3 mps 749 mmHg 74%
    03:00 +10°C° 0 mm 3 mps 749 mmHg 75%
    04:00 +9°C° 0 mm 3 mps 749 mmHg 75%
    05:00 +9°C° 0 mm 3 mps 750 mmHg 76%
    06:00 +10°C° 0 mm 3 mps 750 mmHg 74%
    07:00 +11°C° 0 mm 3 mps 750 mmHg 71%
    08:00 +11°C° 0 mm 4 mps 751 mmHg 69%
    09:00 +13°C° 0 mm 3 mps 750 mmHg 66%
    10:00 +16°C° 0 mm 3 mps 750 mmHg 63%
    11:00 +18°C° 0 mm 2 mps 750 mmHg 61%
    12:00 +18°C° 0 mm 2 mps 749 mmHg 58%
    13:00 +19°C° 0 mm 2 mps 748 mmHg 55%
    14:00 +20°C° 0 mm 2 mps 747 mmHg 52%
    15:00 +19°C° 0 mm 2 mps 747 mmHg 57%
    16:00 +18°C° 0 mm 2 mps 747 mmHg 62%
    17:00 +16°C° 0 mm 2 mps 747 mmHg 67%
    18:00 +16°C° 0 mm 2 mps 747 mmHg 70%
    19:00 +15°C° 0 mm 1 mps 747 mmHg 73%
    20:00 +15°C° 0 mm 1 mps 747 mmHg 76%
    21:00 +14°C° 0 mm 1 mps 747 mmHg 79%
    22:00 +14°C° 0 mm 1 mps 746 mmHg 81%
    23:00 +14°C° 0 mm 1 mps 746 mmHg 84%

    Day after tomorrow, 8 December, Sunday

    Time Temperature Precipitation Wind Pressure Humidity
    00:00 +13°C° 0 mm 1 mps 746 mmHg 86%
    01:00 +13°C° 0 mm 2 mps 745 mmHg 89%
    02:00 +13°C° 0 mm 2 mps 745 mmHg 91%
    03:00 +13°C° 0 mm 2 mps 745 mmHg 93%
    04:00 +13°C° 0 mm 2 mps 744 mmHg 94%
    05:00 +12°C° 0 mm 2 mps 744 mmHg 95%
    06:00 +13°C° 0 mm 2 mps 744 mmHg 92%
    07:00 +14°C° 0 mm 2 mps 744 mmHg 90%
    08:00 +14°C° 0 mm 3 mps 745 mmHg 87%
    09:00 +17°C° 0 mm 3 mps 744 mmHg 77%
    10:00 +19°C° 0 mm 4 mps 744 mmHg 67%
    11:00 +21°C° 0 mm 5 mps 743 mmHg 57%
    12:00 +22°C° 0 mm 4 mps 742 mmHg 57%
    13:00 +23°C° 0 mm 4 mps 742 mmHg 57%
    14:00 +23°C° 0 mm 4 mps 741 mmHg 58%
    15:00 +22°C° 0 mm 4 mps 741 mmHg 64%
    16:00 +21°C° 0 mm 3 mps 740 mmHg 71%
    17:00 +20°C° 0 mm 3 mps 740 mmHg 78%
    18:00 +19°C° 0 mm 3 mps 740 mmHg 82%
    19:00 +19°C° 0 mm 3 mps 741 mmHg 86%
    20:00 +18°C° 0 mm 3 mps 741 mmHg 90%
    21:00 +18°C° 0 mm 3 mps 741 mmHg 91%
    22:00 +18°C° 0 mm 3 mps 740 mmHg 92%
    23:00 +18°C° 0 mm 3 mps 740 mmHg 94%

    9 December, Monday

    Time Temperature Precipitation Wind Pressure Humidity
    00:00 +18°C° 0 mm 3 mps 740 mmHg 95%
    01:00 +18°C° 0 mm 2 mps 740 mmHg 96%
    02:00 +18°C° 0 mm 2 mps 739 mmHg 97%
    03:00 +18°C° 0 mm 2 mps 739 mmHg 97%
    04:00 +19°C° 0 mm 1 mps 739 mmHg 97%
    05:00 +19°C° 0 mm 1 mps 739 mmHg 97%
    06:00 +19°C° 0 mm 1 mps 740 mmHg 95%
    07:00 +20°C° 0 mm 1 mps 740 mmHg 93%
    08:00 +21°C° 0 mm 1 mps 741 mmHg 91%
    09:00 +21°C° 0 mm 2 mps 741 mmHg 84%
    10:00 +24°C° 0 mm 2 mps 740 mmHg 77%
    11:00 +25°C° 0 mm 2 mps 740 mmHg 70%
    12:00 +26°C° 0 mm 2 mps 739 mmHg 63%
    13:00 +27°C° 0 mm 1 mps 739 mmHg 57%
    14:00 +28°C° 0 mm 1 mps 738 mmHg 50%
    15:00 +27°C° 0 mm 1 mps 738 mmHg 56%
    16:00 +25°C° 0 mm 2 mps 738 mmHg 61%
    17:00 +24°C° 0 mm 2 mps 738 mmHg 67%
    18:00 +22°C° 0.4 mm 3 mps 739 mmHg 66%
    19:00 +21°C° 0.4 mm 5 mps 740 mmHg 65%
    20:00 +20°C° 0.4 mm 6 mps 741 mmHg 64%
    21:00 +19°C° 0 mm 6 mps 741 mmHg 63%
    22:00 +18°C° 0 mm 7 mps 742 mmHg 62%
    23:00 +17°C° 0 mm 7 mps 742 mmHg 61%

    10 December, Tuesday

    Time Temperature Precipitation Wind Pressure Humidity
    00:00 +16°C° 0.1 mm 6 mps 743 mmHg 65%
    01:00 +16°C° 0.1 mm 5 mps 743 mmHg 68%
    02:00 +15°C° 0.1 mm 4 mps 743 mmHg 72%
    03:00 +15°C° 0.5 mm 4 mps 744 mmHg 76%
    04:00 +14°C° 0.5 mm 4 mps 744 mmHg 81%
    05:00 +14°C° 0.5 mm 4 mps 745 mmHg 85%
    06:00 +14°C° 0.3 mm 4 mps 746 mmHg 84%
    07:00 +13°C° 0.3 mm 4 mps 747 mmHg 82%
    08:00 +13°C° 0.3 mm 4 mps 748 mmHg 81%
    09:00 +14°C° 0 mm 5 mps 749 mmHg 76%
    10:00 +14°C° 0 mm 5 mps 749 mmHg 71%
    11:00 +15°C° 0 mm 6 mps 749 mmHg 66%
    12:00 +15°C° 0 mm 5 mps 749 mmHg 59%
    13:00 +15°C° 0 mm 5 mps 749 mmHg 52%
    14:00 +16°C° 0 mm 5 mps 749 mmHg 46%
    15:00 +14°C° 0 mm 4 mps 749 mmHg 45%
    16:00 +13°C° 0 mm 3 mps 750 mmHg 44%
    17:00 +12°C° 0 mm 3 mps 750 mmHg 44%
    18:00 +11°C° 0 mm 3 mps 750 mmHg 45%
    19:00 +10°C° 0 mm 2 mps 751 mmHg 46%
    20:00 +9°C° 0 mm 2 mps 751 mmHg 47%
    21:00 +9°C° 0 mm 2 mps 752 mmHg 48%
    22:00 +8°C° 0 mm 2 mps 752 mmHg 50%
    23:00 +8°C° 0 mm 2 mps 752 mmHg 51%

    11 December, Wednesday

    Time Temperature Precipitation Wind Pressure Humidity
    00:00 +7°C° 0 mm 2 mps 752 mmHg 52%
    01:00 +7°C° 0 mm 2 mps 752 mmHg 53%
    02:00 +6°C° 0 mm 2 mps 751 mmHg 54%
    03:00 +6°C° 0 mm 2 mps 752 mmHg 55%
    04:00 +6°C° 0 mm 2 mps 752 mmHg 56%
    05:00 +6°C° 0 mm 1 mps 752 mmHg 56%
    06:00 +6°C° 0 mm 2 mps 752 mmHg 54%
    07:00 +7°C° 0 mm 2 mps 752 mmHg 52%
    08:00 +8°C° 0 mm 2 mps 753 mmHg 50%
    09:00 +10°C° 0 mm 3 mps 752 mmHg 47%
    10:00 +12°C° 0 mm 3 mps 752 mmHg 43%
    11:00 +14°C° 0 mm 3 mps 752 mmHg 40%
    12:00 +14°C° 0 mm 4 mps 751 mmHg 39%
    13:00 +15°C° 0 mm 4 mps 750 mmHg 39%
    14:00 +17°C° 0 mm 4 mps 749 mmHg 38%
    15:00 +15°C° 0 mm 4 mps 749 mmHg 43%
    16:00 +13°C° 0 mm 3 mps 749 mmHg 49%
    17:00 +12°C° 0 mm 3 mps 749 mmHg 54%
    18:00 +12°C° 0 mm 3 mps 749 mmHg 61%
    19:00 +11°C° 0 mm 4 mps 749 mmHg 68%
    20:00 +11°C° 0 mm 4 mps 749 mmHg 75%
    21:00 +11°C° 0 mm 4 mps 749 mmHg 77%
    22:00 +11°C° 0 mm 4 mps 749 mmHg 79%
    23:00 +11°C° 0 mm 3 mps 749 mmHg 81%
    Show more